Regional Weather Roundup
Issued by NWS Huntsville, AL

Home | Current Version | Previous Version | Text Only | Print | Product List | Glossary On
Versions: 1 2 3 4 5 6 7 8 9 10 11 12 13 14 15 16 17 18 19 20 21 22 23 24 25 26 27 28 29 30 31 32 33 34 35 36 37 38 39 40 41 42 43 44 45 46 47 48 49 50
000
ASUS44 KHUN 170210
RWRHUN

WEATHER ROUNDUP FOR THE TENNESSEE VALLEY
NATIONAL WEATHER SERVICE HUNTSVILLE AL
900 PM CDT FRI APR 16 2021

ALZ001>004-170300-
NORTHWEST ALABAMA

CITY           SKY/WX    TMP DP  RH WIND       PRES   REMARKS
SHOALS AIRPORT MOCLDY    58  45  62 CALM      29.87S
$$

ALZ005>007-016-170300-
NORTH CENTRAL ALABAMA

CITY           SKY/WX    TMP DP  RH WIND       PRES   REMARKS
CULLMAN AG STN   N/A     54 N/A N/A CALM        N/A
DECATUR AP     CLOUDY    56  44  64 CALM      29.88R
HUNTSVILLE AP  CLOUDY    56  46  69 NW5       29.88R
HUN NWS/UAH      N/A     59  39  47 W1          N/A
MERIDIANVILLE  CLEAR     54  43  65 CALM      29.88S
VINEMONT AP      N/A    N/A N/A N/A MISG        N/A
$$

ALZ008>010-170300-
NORTHEAST ALABAMA

CITY           SKY/WX    TMP DP  RH WIND       PRES   REMARKS
ALBERTVILLE    CLOUDY    55  41  58 CALM      29.88R
FORT PAYNE     MOCLDY    54  44  68 CALM      29.87R
SCOTTSBORO AP  MOCLDY    55  45  67 CALM      29.88R
$$

TNZ076-096-097-170300-
SOUTHEASTERN MIDDLE TENNESSEE

CITY           SKY/WX    TMP DP  RH WIND       PRES   REMARKS
FAYETTEVILLE   CLEAR     57  37  47 N3        29.89S
TULLAHOMA      CLEAR     55  36  47 CALM      29.87F
WINCHESTER     CLEAR     54  39  58 CALM      29.87S
$$

...SURROUNDING SITES...

CITY           SKY/WX    TMP DP  RH WIND       PRES   REMARKS
ATLANTA        CLOUDY    60  41  49 SW3       29.87R
ANNISTON       CLOUDY    58  46  64 CALM      29.87R
BIRMINGHAM     CLOUDY    61  42  49 CALM      29.88R
CHATTANOOGA    CLOUDY    57  44  62 CALM      29.87S
CORINTH        CLOUDY    55  46  71 CALM      29.87S
DALTON         CLOUDY    55  37  50 CALM      29.88S
GADSDEN        CLOUDY    57  50  77 CALM      29.88R
GOLDEN TRNGL   CLOUDY    57  54  89 NE3       29.86S
HALEYVILLE     FAIR      53  46  77 CALM      29.90R
JACKSON TN     MOCLDY    55  44  66 CALM      29.89R
MEMPHIS        CLOUDY    60  39  45 E7        29.87R
NASHVILLE      MOCLDY    59  37  44 NE6       29.90R
OXFORD MS      MOCLDY    54  45  71 E5        29.87S
ROME           CLOUDY    57  42  57 CALM      29.86R
SAVANNAH       MOCLDY    55  50  82 CALM      29.88R
SELMER         MOCLDY    54  48  82 CALM      29.87S
TUPELO         CLOUDY    59  44  57 NE5       29.85F
TUSCALOOSA     CLOUDY    60  51  72 N5        29.87R
$$




USA.gov is the U.S. government's official web portal to all federal, state and local government web resources and services.